User: anonymous   Login
Location: Fort Wayne
(41.1310°N, 85.1290°W)
Time: 04:12:32
(UTC-04:00)
Language:

Cosmos 1000 Rocket - Orbit

View from above orbital plane
View from above orbital plane
View from above satellite
View from above satellite

Ground track
Ground track

The orbit data is extracted from the following two-line orbital elements,

1 10777U 78034B   15210.49313166 -.00000029  00000-0 -44621-4 0  9990
2 10777 082.9412 022.7971 0025424 329.6513 041.9849 13.77349321875571
Epoch (UTC): 29 July 2015 11:50:06
Eccentricity: 0.0025424
inclination: 82.9412°
perigee height: 954 km
apogee height: 992 km
right ascension of ascending node: 22.7971°
argument of perigee: 329.6513°
revolutions per day: 13.77349321
mean anomaly at epoch: 41.9849°
orbit number at epoch: 87557

The dashed part of the orbit path shows where the satellite is in the earth's shadow,  

DLR